Location: Opava
(49.9500°N, 17.9170°E)
Time: 18:44:17
(UTC+01:00)

ISS - Visible Passes

Search period start: 21 March 2019 00:00
Search period end: 31 March 2019 00:00
Orbit: 406 x 411 km, 51.6° (Epoch: 21 March)

Date Brightness Start Highest point End Pass type
(mag) Time Alt. Az. Time Alt. Az. Time Alt. Az.
22 Mar -2.7 19:38:14 10° SSW 19:40:42 28° SSE 19:40:42 28° SSE visible
23 Mar -2.2 18:47:49 10° S 18:50:14 19° SE 18:52:19 12° E visible
23 Mar -2.4 20:23:06 10° WSW 20:25:05 33° WSW 20:25:05 33° WSW visible
24 Mar -3.7 19:32:07 10° SW 19:35:20 53° SSE 19:36:30 33° E visible
24 Mar -0.9 21:08:37 10° W 21:09:16 15° W 21:09:16 15° W visible
25 Mar -3.0 18:41:16 10° SW 18:44:19 35° SSE 18:47:23 10° E visible
25 Mar -3.6 20:17:27 10° W 20:20:31 70° NW 20:20:31 70° NW visible
26 Mar -3.9 19:26:18 10° WSW 19:29:36 87° SSE 19:31:39 21° ENE visible
26 Mar -1.4 21:03:00 10° W 21:04:24 23° WNW 21:04:24 23° WNW visible
27 Mar -3.6 20:11:49 10° W 20:15:06 63° N 20:15:26 58° NNE visible
28 Mar -3.6 19:20:36 10° W 19:23:54 70° N 19:26:23 16° ENE visible
28 Mar -1.9 20:57:19 10° WNW 20:59:07 29° WNW 20:59:07 29° WNW visible
29 Mar -3.6 20:06:07 10° WNW 20:09:25 64° N 20:10:01 51° ENE visible
30 Mar -3.5 19:14:54 10° W 19:18:12 62° N 19:20:53 14° E visible
30 Mar -2.3 20:51:33 10° WNW 20:53:37 35° WNW 20:53:37 35° WNW visible
